Date,TemperatureHighF,TemperatureAvgF,TemperatureLowF,DewpointHighF,DewpointAvgF,DewpointLowF,HumidityHigh,HumidityAvg,HumidityLow,PressureMaxIn,PressureMinIn,WindSpeedMaxMPH,WindSpeedAvgMPH,GustSpeedMaxMPH,PrecipitationSumIn
2014-1-1,47,36,24,29,26,19,90,68,46,30.13,29.94,13,1,13,0.00
2014-1-2,26,18,10,23,11,3,90,74,56,30.45,29.97,19,3,19,0.00
2014-1-3,30,16,0,14,7,-5,86,67,46,30.48,29.96,14,1,14,0.01
2014-1-4,44,33,26,31,22,12,92,63,50,29.98,29.84,21,2,21,0.01
2014-1-5,33,18,3,32,16,-3,96,89,76,30.29,29.78,16,3,16,0.01
2014-1-6,3,-4,-11,-3,-13,-19,77,64,59,30.52,30.28,15,2,15,0.00
2014-1-7,24,8,-13,13,-1,-20,72,66,53,30.48,30.17,10,1,14,0.06
2014-1-8,38,28,21,22,17,12,77,64,49,30.38,30.21,10,0,10,0.13
2014-1-9,34,28,20,31,25,15,96,89,77,30.38,30.09,7,0,7,0.03
2014-1-10,44,39,32,44,38,31,100,98,95,30.09,29.48,11,1,13,0.64
2014-1-11,50,41,34,43,34,29,100,78,49,29.87,29.47,12,2,13,0.04
2014-1-12,58,43,28,36,32,26,96,67,36,29.90,29.59,17,2,17,0.01
2014-1-13,57,48,30,38,34,25,82,58,43,29.80,29.53,14,2,14,0.00
2014-1-14,48,37,27,34,24,10,91,61,32,30.02,29.69,18,2,18,0.00
2014-1-15,32,25,19,16,12,9,74,57,43,30.15,29.90,14,2,15,0.00
2014-1-16,47,35,26,32,22,11,85,58,41,29.92,29.65,22,2,22,0.00
2014-1-17,29,18,11,19,8,1,82,67,48,30.08,29.79,20,2,20,0.00
2014-1-18,44,29,11,34,20,6,90,69,42,30.04,29.62,24,2,24,0.03
2014-1-19,53,37,22,27,21,16,81,56,30,30.00,29.71,17,2,17,0.00
2014-1-20,52,44,36,32,28,24,73,54,42,29.89,29.70,13,1,13,0.00
2014-1-21,38,17,8,30,9,-1,92,70,51,30.31,29.82,17,3,23,0.00
2014-1-22,30,22,13,19,10,4,72,61,46,30.27,30.00,19,2,19,0.00
2014-1-23,17,7,0,6,-6,-10,74,55,40,30.71,30.26,19,2,19,0.00
2014-1-24,33,19,-1,7,-1,-7,77,46,21,30.69,29.72,17,2,17,0.00
2014-1-25,45,34,21,34,12,-7,72,43,14,29.92,29.62,17,3,24,0.00
2014-1-26,62,47,22,33,25,-1,70,43,27,29.92,29.49,32,3,32,0.00
2014-1-27,29,14,6,20,-8,-12,70,37,25,30.46,29.89,17,3,21,0.00
2014-1-28,19,9,1,-4,-7,-10,72,50,27,30.51,30.34,11,0,11,0.00
2014-1-29,36,20,3,8,0,-5,74,45,22,30.35,30.04,13,1,13,0.00
2014-1-30,46,33,23,16,10,6,56,40,20,30.04,29.73,25,2,25,0.00
2014-1-31,36,32,29,29,23,15,96,71,43,30.04,29.87,6,0,10,0.00
2014-2-1,41,33,27,41,32,26,99,97,94,30.04,29.68,11,1,11,0.27
2014-2-2,27,22,13,26,17,8,94,80,69,30.27,30.03,13,2,13,0.00
2014-2-3,30,18,4,17,10,0,85,71,45,30.37,30.25,7,0,7,0.06
2014-2-4,27,24,22,24,20,17,93,84,76,30.25,29.85,11,1,11,0.00
2014-2-5,22,19,12,20,13,4,92,77,67,30.54,29.89,15,2,15,0.00
2014-2-6,14,6,-5,5,-5,-12,73,59,39,30.59,30.47,10,1,12,0.02
2014-2-7,21,8,-8,6,-3,-14,81,61,39,30.50,30.27,9,0,9,0.00
2014-2-8,31,23,16,22,16,6,84,74,62,30.27,30.06,4,0,5,0.00
2014-2-9,29,24,19,23,20,13,88,81,62,30.31,30.06,11,1,11,0.00
2014-2-10,19,12,3,13,-1,-6,77,57,42,30.47,30.30,13,1,13,0.01
2014-2-11,20,7,-4,-1,-5,-11,76,58,36,30.52,30.31,5,0,5,0.00
2014-2-12,35,14,-4,16,4,-9,82,66,42,30.31,29.96,5,0,5,0.04
2014-2-13,52,31,6,30,19,2,87,63,36,29.97,29.64,14,1,14,0.01
2014-2-14,39,28,18,33,24,11,95,85,69,30.03,29.55,16,2,16,0.25
2014-2-15,30,22,10,21,14,6,84,71,61,30.13,29.92,10,0,10,0.00
2014-2-16,32,29,25,25,23,20,85,77,69,30.18,29.91,9,1,13,0.00
2014-2-17,46,35,25,42,28,20,100,78,57,30.10,29.73,22,1,22,0.07
2014-2-18,60,47,36,39,30,24,76,53,29,29.98,29.68,17,1,22,0.00
2014-2-19,54,45,36,38,34,29,78,65,48,29.98,29.70,8,1,11,0.00
2014-2-20,73,52,36,59,44,27,94,73,38,29.70,29.20,28,3,28,0.00
2014-2-21,58,44,34,28,19,12,72,40,19,29.89,29.63,22,3,22,0.00
2014-2-22,68,46,30,37,24,17,86,48,15,29.95,29.76,15,1,15,0.00
2014-2-23,39,32,22,33,19,13,91,59,36,30.28,29.94,16,3,16,0.00
2014-2-24,39,29,19,18,12,3,77,52,24,30.33,30.16,6,0,10,0.00
2014-2-25,33,27,19,19,16,7,84,65,48,30.26,30.14,14,2,14,0.00
2014-2-26,28,19,11,7,1,-6,60,45,25,30.29,29.91,20,2,20,0.00
2014-2-27,30,24,17,13,3,-8,64,42,19,30.10,29.89,15,2,15,0.00
2014-2-28,49,33,16,24,13,6,68,47,25,30.05,29.86,14,1,14,0.00
2014-3-1,48,37,25,32,26,22,90,64,49,30.18,29.95,12,2,12,0.00
2014-3-2,25,14,6,23,10,-4,90,81,64,30.35,30.14,18,4,18,0.00
2014-3-3,24,12,3,7,-1,-9,75,57,38,30.47,30.30,18,2,18,0.02
2014-3-4,38,24,7,18,11,2,86,59,33,30.30,30.07,7,0,7,0.11
2014-3-5,41,30,16,28,21,12,86,69,52,30.22,30.07,8,0,8,0.01
2014-3-6,48,32,24,28,23,19,89,69,37,30.23,29.99,6,0,9,0.00
2014-3-7,61,41,22,34,27,20,96,64,26,30.00,29.82,8,0,9,0.00
2014-3-8,42,38,35,35,32,28,84,77,64,30.23,29.89,13,2,13,0.00
2014-3-9,60,38,33,33,28,26,84,68,32,30.26,29.94,9,1,12,0.00
2014-3-10,80,56,39,40,35,30,90,53,17,29.94,29.61,15,2,15,0.00
2014-3-11,83,64,50,55,43,35,82,49,20,29.63,29.34,16,2,16,0.00
2014-3-12,56,40,35,51,29,19,97,69,35,30.07,29.35,15,5,27,0.48
2014-3-13,66,51,26,35,30,20,79,47,25,30.11,29.87,11,2,11,0.00
2014-3-14,69,55,43,33,30,26,63,40,25,29.91,29.73,18,3,18,0.00
2014-3-15,71,54,32,36,30,25,81,45,20,29.96,29.82,12,1,12,0.00
2014-3-16,53,34,26,36,24,14,92,67,48,30.02,29.82,17,3,25,0.17
2014-3-17,48,32,19,29,20,13,85,64,30,30.01,29.72,9,1,9,0.05
2014-3-18,58,45,31,42,36,27,95,72,52,29.74,29.51,16,2,16,0.01
2014-3-19,51,46,37,44,36,27,88,68,49,30.08,29.56,14,3,20,0.00
2014-3-20,69,49,26,34,28,24,94,53,19,30.07,29.86,10,2,16,0.00
2014-3-21,76,61,47,37,31,26,56,35,17,29.87,29.67,14,2,14,0.00
2014-3-22,57,43,36,35,28,20,73,55,40,30.24,29.87,15,4,15,0.00
2014-3-23,42,34,23,20,12,5,61,42,22,30.39,30.24,19,3,19,0.00
2014-3-24,42,29,17,29,19,11,93,69,32,30.31,30.10,15,1,15,0.00
2014-3-25,40,33,22,30,18,8,95,59,28,30.24,30.06,22,3,22,0.04
2014-3-26,53,36,15,26,15,9,83,48,23,30.29,29.94,12,2,12,0.00
2014-3-27,59,52,39,55,41,27,94,66,48,29.94,29.52,21,3,21,0.31
2014-3-28,57,46,38,55,38,34,96,75,56,30.04,29.57,15,2,15,0.06
2014-3-29,47,40,29,40,34,27,96,81,59,30.21,29.96,15,2,15,0.07
2014-3-30,67,46,26,39,33,24,98,68,28,30.22,29.97,10,1,10,0.00
2014-3-31,70,56,43,44,39,33,81,56,27,29.97,29.64,19,3,19,0.00
2014-4-1,62,52,45,47,37,26,96,62,26,30.00,29.78,16,2,16,0.08
2014-4-2,55,49,44,53,47,42,98,93,83,30.00,29.75,16,1,16,0.26
2014-4-3,66,60,55,64,59,54,99,97,89,29.75,29.55,18,1,18,1.61
2014-4-4,57,47,41,57,38,29,99,72,54,30.07,29.49,26,5,26,0.26
2014-4-5,55,46,38,35,31,26,84,58,41,30.16,30.04,7,1,11,0.08
2014-4-6,60,47,35,39,36,32,94,67,39,30.05,29.75,9,0,9,0.07
2014-4-7,49,47,44,46,42,37,98,83,65,29.78,29.56,15,1,15,0.05
2014-4-8,62,52,43,46,39,31,97,65,33,29.91,29.65,21,2,21,0.07
2014-4-9,45,43,41,34,33,32,72,68,64,29.94,29.91,4,0,4,0.00
2014-4-18,71,57,44,46,42,39,87,59,33,30.22,30.11,13,1,13,0.02
2014-4-19,76,60,42,48,43,38,96,61,28,30.20,30.06,10,0,10,0.00
2014-4-20,84,66,44,50,43,37,92,48,21,30.12,29.93,13,0,13,0.00
2014-4-21,75,65,60,62,55,45,96,73,50,29.94,29.79,11,0,11,0.38
2014-4-22,68,59,45,60,43,33,98,60,29,29.94,29.80,15,2,15,0.02
2014-4-23,67,54,39,43,39,35,89,60,33,30.04,29.87,10,0,10,0.00
2014-4-24,80,62,50,58,45,35,98,57,29,29.87,29.50,21,1,21,1.38
2014-4-25,77,62,49,57,47,37,98,62,25,29.88,29.57,17,1,17,0.20
2014-4-26,77,67,56,55,47,38,72,52,25,29.83,29.68,12,1,12,0.00
2014-4-27,78,67,57,64,58,50,96,75,54,29.70,29.41,18,2,18,0.79
2014-4-28,78,65,52,64,57,44,98,78,37,29.50,29.25,16,2,16,0.87
2014-4-29,70,57,49,49,44,39,87,63,33,29.67,29.38,17,2,20,0.01
2014-4-30,58,50,45,45,40,35,89,69,46,29.86,29.65,15,2,18,0.00
2014-5-1,55,49,40,41,39,35,89,69,53,29.89,29.82,15,1,15,0.00
2014-5-2,64,52,43,45,40,37,87,67,40,29.89,29.77,15,1,15,0.00
2014-5-3,78,63,50,52,43,36,85,50,28,29.86,29.73,10,1,10,0.00
2014-5-4,83,66,46,59,52,45,98,66,37,29.88,29.70,14,0,14,0.02
2014-5-5,90,71,52,64,55,49,93,62,27,29.73,29.58,7,0,7,0.01
2014-5-6,87,72,56,65,58,53,94,65,42,29.72,29.58,15,1,15,0.03
2014-5-7,84,74,66,66,60,54,76,61,44,29.75,29.62,18,1,18,0.01
2014-5-8,85,75,67,66,63,59,90,67,48,29.81,29.72,16,2,16,0.02
2014-5-9,77,69,61,67,63,57,96,81,54,29.79,29.65,12,1,12,0.04
2014-5-10,84,70,54,66,59,49,100,73,34,29.87,29.74,9,0,9,0.00
2014-5-11,85,74,61,72,65,58,96,75,53,29.88,29.73,13,1,13,0.04
2014-5-12,84,76,67,72,69,64,92,78,62,29.85,29.74,16,2,16,0.05
2014-5-13,67,66,66,64,64,64,93,93,92,29.84,29.81,0,0,1,0.02
2014-5-15,57,50,42,51,46,40,94,87,75,30.02,29.93,10,0,10,0.10
2014-5-16,60,48,39,42,37,32,94,69,36,30.07,29.96,14,1,14,0.00
2014-5-17,63,50,35,47,39,32,99,70,33,30.14,30.06,7,0,7,0.00
2014-5-18,68,55,39,46,41,36,97,64,34,30.20,30.07,10,0,10,0.00
2014-5-19,77,64,49,63,53,42,83,68,57,30.09,29.79,13,1,15,0.00
2014-5-20,86,74,58,70,63,56,96,71,52,29.87,29.73,14,1,14,0.00
2014-5-21,88,76,67,74,67,62,88,74,52,29.87,29.80,9,1,10,0.00
2014-5-22,80,73,64,69,61,55,97,68,43,30.01,29.87,7,0,7,0.00
2014-5-23,81,69,58,58,54,45,88,63,28,30.06,29.97,10,0,10,0.00
2014-5-24,80,67,55,63,57,52,93,72,47,30.07,29.97,6,0,6,0.00
2014-5-25,84,72,63,70,62,54,83,71,55,30.00,29.89,5,0,8,0.00
2014-5-26,87,72,64,73,67,62,98,85,54,29.98,29.89,13,0,13,0.40
2014-5-27,81,71,62,74,67,62,100,88,65,29.92,29.83,7,0,7,0.24
2014-5-28,84,72,60,71,66,59,99,83,58,29.89,29.80,7,0,7,0.00
2014-5-29,81,72,64,71,67,63,99,85,61,29.93,29.82,7,0,7,0.00
2014-5-30,87,74,65,73,68,64,99,86,52,29.97,29.90,4,0,9,0.10
2014-5-31,88,74,66,76,70,65,100,87,56,30.00,29.89,8,0,8,0.07
2014-6-1,86,77,68,74,69,67,99,80,57,29.94,29.81,12,1,12,0.00
2014-6-2,84,76,72,72,69,67,91,80,62,29.88,29.82,13,1,14,0.00
2014-6-3,90,79,70,74,71,68,98,78,52,29.92,29.74,6,0,6,0.00
2014-6-4,85,75,68,76,71,67,98,89,69,29.75,29.63,10,1,14,0.87
2014-6-5,71,67,61,68,64,60,99,92,79,29.88,29.71,8,0,8,0.01
2014-6-6,81,70,60,70,65,59,99,86,58,29.89,29.79,7,0,7,0.00
2014-6-7,78,70,63,73,68,62,100,92,78,29.86,29.63,11,1,11,0.45
2014-6-8,76,69,64,66,62,58,95,79,61,29.92,29.70,12,1,12,0.01
2014-6-9,74,68,63,67,64,62,99,90,74,29.85,29.63,11,0,11,0.73
2014-6-10,78,68,62,71,66,61,100,93,74,29.65,29.56,4,0,6,0.49
2014-6-11,76,66,60,67,63,58,100,89,67,29.73,29.60,11,1,11,0.01
2014-6-12,80,68,58,70,64,57,100,88,61,29.83,29.72,7,0,7,0.12
2014-6-13,75,66,53,65,55,44,98,73,33,29.97,29.83,10,1,13,0.01
2014-6-14,80,65,48,59,52,47,100,68,36,30.02,29.83,13,0,13,0.00
2014-6-15,83,72,61,72,65,55,92,79,62,29.92,29.75,12,1,12,0.01
2014-6-16,90,79,70,75,70,67,97,76,52,29.99,29.83,11,1,11,0.02
2014-6-17,88,81,74,76,72,69,91,75,59,29.92,29.80,13,1,13,0.00
2014-6-18,90,81,72,76,72,68,92,75,55,29.89,29.82,12,1,12,0.00
2014-6-19,91,82,70,76,72,68,97,74,50,29.96,29.85,8,0,8,0.00
2014-6-20,90,80,69,77,72,67,94,77,58,29.93,29.82,9,0,9,0.00
2014-6-21,91,78,66,76,70,63,99,79,48,29.88,29.75,11,0,11,0.62
2014-6-22,84,74,65,77,70,64,100,87,61,29.85,29.72,10,0,10,0.05
2014-6-23,86,74,66,75,71,66,99,91,66,29.79,29.72,9,0,9,0.28
2014-6-24,84,75,66,73,69,63,99,84,53,29.87,29.75,11,0,11,0.21
2014-6-25,87,75,63,72,67,62,100,79,46,29.93,29.86,6,0,6,0.00
2014-6-26,88,77,67,74,69,66,100,79,48,29.92,29.80,0,0,0,0.00
2014-6-27,82,74,69,75,71,67,98,91,75,29.90,29.83,4,0,4,0.35
2014-6-28,86,77,70,75,71,69,99,83,62,29.92,29.82,13,1,13,0.02
2014-6-29,82,76,72,75,71,67,97,86,75,29.93,29.82,11,1,11,0.02
2014-6-30,90,81,73,80,75,70,97,82,67,29.85,29.60,12,1,12,0.00
2014-7-1,86,78,66,75,71,64,97,79,53,29.81,29.61,10,0,10,0.09
2014-7-2,78,70,64,66,59,53,98,72,47,29.99,29.81,12,1,12,0.00
2014-7-3,78,66,57,63,58,54,95,77,50,30.12,29.99,9,0,9,0.00
2014-7-4,81,67,54,65,59,54,100,77,41,30.21,30.12,5,0,5,0.00
2014-7-5,80,68,54,66,60,53,100,76,48,30.17,29.97,7,0,7,0.00
2014-7-6,88,76,64,76,69,62,96,79,61,29.97,29.77,10,0,10,0.09
2014-7-7,91,80,72,80,73,68,97,79,61,29.80,29.61,13,1,13,0.55
2014-7-8,84,74,66,75,67,62,99,81,51,29.85,29.61,17,1,17,0.45
2014-7-9,84,75,62,69,64,58,98,70,48,29.97,29.85,7,0,7,0.00
2014-7-10,83,70,57,67,62,56,100,79,45,30.05,29.95,6,0,6,0.00
2014-7-11,88,74,58,74,67,57,100,81,57,30.08,29.96,9,0,9,0.00
2014-7-12,93,82,75,78,73,70,92,76,49,30.01,29.88,5,0,5,0.00
2014-7-13,88,80,73,77,73,70,94,79,59,29.91,29.80,10,0,10,0.11
2014-7-14,88,74,62,75,70,61,99,90,58,29.88,29.74,17,0,17,0.31
2014-7-15,75,65,54,62,55,52,97,73,50,29.95,29.87,13,1,13,0.00
2014-7-16,77,65,53,63,56,52,99,76,43,29.98,29.92,9,0,9,0.00
2014-7-17,80,67,54,65,59,53,100,78,45,30.02,29.95,4,0,4,0.00
2014-7-18,81,68,58,65,60,56,99,76,44,30.03,29.93,6,0,6,0.00
2014-7-19,81,70,55,67,62,54,100,76,47,29.98,29.90,9,0,9,0.00
2014-7-20,84,70,56,69,62,56,100,77,47,29.98,29.89,5,0,5,0.00
2014-7-21,86,74,61,72,66,60,99,78,52,30.00,29.92,6,0,9,0.00
2014-7-22,89,77,63,75,69,62,99,78,55,29.99,29.89,10,0,10,0.00
2014-7-23,87,78,64,78,70,58,90,77,60,30.00,29.87,14,1,14,0.00
2014-7-24,81,67,54,61,56,52,96,71,41,30.04,29.93,13,0,13,0.00
2014-7-25,78,67,55,67,62,54,99,83,61,30.00,29.77,16,0,16,0.00
2014-7-26,97,79,66,79,71,63,96,78,45,29.82,29.71,9,0,9,0.00
2014-7-27,91,82,71,76,68,56,95,63,33,29.87,29.70,13,1,13,0.00
2014-7-28,79,70,56,64,59,54,92,70,53,30.02,29.87,11,1,11,0.00
2014-7-29,80,66,51,62,56,50,100,75,41,30.06,29.96,7,0,7,0.00
2014-7-30,82,69,56,66,60,54,100,77,38,30.00,29.93,5,0,5,0.00
2014-7-31,86,71,58,70,62,56,100,75,38,29.99,29.92,5,0,5,0.00
2014-8-1,87,71,60,70,64,58,100,82,39,29.99,29.92,5,0,6,0.04
2014-8-2,86,71,58,67,62,57,100,76,38,30.06,29.97,9,0,9,0.00
2014-8-3,87,72,57,70,62,56,100,76,41,30.08,29.95,6,0,6,0.00
2014-8-4,90,75,60,69,62,58,99,69,37,30.03,29.91,5,0,5,0.00
2014-8-5,89,76,67,75,68,58,98,79,56,29.95,29.87,7,0,7,0.36
2014-8-6,88,75,66,74,70,65,100,85,53,29.96,29.86,5,0,5,0.00
2014-8-7,74,72,71,74,71,69,100,97,94,29.88,29.73,9,0,9,2.02
2014-8-8,86,76,70,76,72,70,100,90,62,29.84,29.77,9,0,9,0.00
2014-8-9,82,74,69,74,71,68,99,91,70,29.90,29.82,9,0,9,0.03
2014-8-10,84,75,69,74,71,68,99,87,64,29.91,29.81,6,0,6,0.00
2014-8-11,84,75,69,72,69,61,99,81,55,29.85,29.77,9,0,10,0.00
2014-8-12,79,69,58,65,59,54,96,72,42,29.95,29.82,14,1,14,0.00
2014-8-13,82,68,56,63,58,52,99,75,37,30.02,29.94,10,0,10,0.00
2014-8-14,84,73,56,69,61,56,98,70,41,30.00,29.90,5,0,5,0.00
2014-8-15,88,72,58,74,67,57,100,84,53,29.95,29.83,4,0,4,0.01
2014-8-16,82,72,69,75,70,68,100,93,75,29.88,29.71,10,0,10,1.20
2014-8-17,75,72,69,73,71,68,99,96,91,29.81,29.68,6,0,6,0.10
2014-8-18,86,75,68,76,71,68,100,90,61,29.81,29.70,5,0,5,0.06
2014-8-19,89,76,67,78,72,66,100,87,59,29.76,29.67,14,0,14,0.01
2014-8-20,90,78,69,79,73,68,100,87,63,29.86,29.72,5,0,5,0.02
2014-8-21,94,82,69,79,74,68,99,81,51,29.91,29.79,12,0,12,0.00
2014-8-22,92,82,72,80,75,69,95,81,59,29.90,29.79,5,0,5,0.00
2014-8-23,96,83,75,80,75,68,95,78,42,29.85,29.76,10,0,10,0.00
2014-8-24,97,84,76,81,76,72,99,82,47,29.85,29.78,5,0,5,0.00
2014-8-25,97,83,74,81,76,72,99,81,48,29.93,29.84,5,0,5,0.00
2014-8-26,97,82,71,78,74,68,99,80,40,30.00,29.90,6,0,6,0.00
2014-8-27,95,78,69,78,72,68,99,84,48,29.99,29.90,9,0,9,1.11
2014-8-28,90,79,70,79,73,70,99,85,61,29.94,29.83,8,0,8,0.01
2014-8-29,90,78,69,77,71,67,100,82,50,29.87,29.73,7,0,7,0.02